| time (UTC) | temp F | wind direction | speed knots | gust knots | rain 1hr in | rain 24hr in | rain mn in | humidity % | barometer mb |
| 20260831202629 | 91 | 265 | 3.5 | 7.0 | 0.00 | 0.00 | 0.00 | 63 | 1013.6 |
| 20260831202129 | 91 | 225 | 2.6 | 7.8 | 0.00 | 0.00 | 0.00 | 61 | 1013.5 |
| 20260831201629 | 91 | 295 | 3.5 | 8.7 | 0.00 | 0.00 | 0.00 | 58 | 1013.6 |
| 20260831201130 | 91 | 261 | 3.5 | 8.7 | 0.00 | 0.00 | 0.00 | 59 | 1013.5 |
| 20260831200628 | 91 | 269 | 3.5 | 7.0 | 0.00 | 0.00 | 0.00 | 65 | 1013.6 |
| 20260831200129 | 90 | 257 | 4.3 | 7.0 | 0.00 | 0.00 | 0.00 | 63 | 1013.6 |
| 20260831195128 | 92 | 227 | 5.2 | 9.6 | 0.00 | 0.00 | 0.00 | 57 | 1013.6 |
| 20260831194627 | 93 | 44 | 3.5 | 7.0 | 0.00 | 0.00 | 0.00 | 61 | 1013.5 |
| 20260831194127 | 92 | 250 | 1.7 | 7.8 | 0.00 | 0.00 | 0.00 | 61 | 1013.6 |
| 20260831193627 | 92 | 241 | 4.3 | 7.8 | 0.00 | 0.00 | 0.00 | 65 | 1013.5 |
| 20260831193126 | 91 | 234 | 2.6 | 7.0 | 0.00 | 0.00 | 0.00 | 64 | 1013.6 |
| 20260831192627 | 91 | 9 | 0.9 | 7.8 | 0.00 | 0.00 | 0.00 | 61 | 1013.5 |
| 20260831192126 | 92 | 209 | 2.6 | 7.8 | 0.00 | 0.00 | 0.00 | 60 | 1013.4 |
| 20260831191626 | 92 | 300 | 1.7 | 5.2 | 0.00 | 0.00 | 0.00 | 65 | 1013.5 |
| 20260831191128 | 91 | 338 | 1.7 | 6.1 | 0.00 | 0.00 | 0.00 | 65 | 1013.5 |
| 20260831190626 | 90 | 284 | 2.6 | 6.1 | 0.00 | 0.00 | 0.00 | 65 | 1013.5 |
| 20260831190126 | 90 | 228 | 3.5 | 6.1 | 0.00 | 0.00 | 0.00 | 66 | 1013.5 |
| 20260831185626 | 90 | 342 | 1.7 | 6.1 | 0.00 | 0.00 | 0.00 | 67 | 1013.5 |
| 20260831185125 | 89 | 282 | 1.7 | 6.1 | 0.00 | 0.00 | 0.00 | 70 | 1013.6 |
| 20260831184625 | 89 | 340 | 1.7 | 6.1 | 0.00 | 0.00 | 0.00 | 69 | 1013.5 |
| 20260831184125 | 89 | 221 | 1.7 | 7.0 | 0.00 | 0.00 | 0.00 | 65 | 1013.5 |
| 20260831183626 | 89 | 208 | 1.7 | 7.0 | 0.00 | 0.00 | 0.00 | 67 | 1013.6 |
| 20260831183121 | 88 | 254 | 2.6 | 7.0 | 0.00 | 0.00 | 0.00 | 68 | 1013.7 |
| 20260831182120 | 88 | 93 | 1.7 | 5.2 | 0.00 | 0.00 | 0.00 | 68 | 1013.6 |
| 20260831181619 | 87 | 340 | 1.7 | 3.5 | 0.00 | 0.00 | 0.00 | 68 | 1013.5 |
| 20260831181122 | 87 | 250 | 1.7 | 6.1 | 0.00 | 0.00 | 0.00 | 71 | 1013.6 |
| 20260831180620 | 86 | 265 | 1.7 | 6.1 | 0.00 | 0.00 | 0.00 | 73 | 1013.6 |
| 20260831180119 | 85 | 13 | 1.7 | 5.2 | 0.00 | 0.00 | 0.00 | 74 | 1013.6 |
| 20260831175619 | 85 | 273 | 1.7 | 6.1 | 0.00 | 0.00 | 0.00 | 71 | 1013.7 |
| 20260831174619 | 85 | 252 | 2.6 | 6.1 | 0.00 | 0.00 | 0.00 | 71 | 1013.8 |
| 20260831174118 | 85 | 255 | 2.6 | 6.1 | 0.00 | 0.00 | 0.00 | 71 | 1013.8 |
| 20260831173619 | 85 | 282 | 2.6 | 6.1 | 0.00 | 0.00 | 0.00 | 73 | 1013.6 |
| 20260831173118 | 85 | 257 | 2.6 | 7.0 | 0.00 | 0.00 | 0.00 | 72 | 1013.6 |
| 20260831172617 | 85 | 261 | 3.5 | 7.0 | 0.00 | 0.00 | 0.00 | 72 | 1013.7 |
| 20260831172117 | 85 | 221 | 1.7 | 6.1 | 0.00 | 0.00 | 0.00 | 72 | 1013.6 |
| 20260831171618 | 85 | 265 | 1.7 | 5.2 | 0.00 | 0.00 | 0.00 | 74 | 1013.6 |
| 20260831171119 | 85 | 259 | 1.7 | 5.2 | 0.00 | 0.00 | 0.00 | 69 | 1013.7 |
| 20260831170617 | 85 | 305 | 1.7 | 5.2 | 0.00 | 0.00 | 0.00 | 72 | 1013.6 |
| 20260831165617 | 84 | 303 | 1.7 | 7.0 | 0.00 | 0.00 | 0.00 | 75 | 1013.5 |
| 20260831165116 | 84 | 15 | 2.6 | 7.0 | 0.00 | 0.00 | 0.00 | 74 | 1013.4 |
| 20260831164616 | 83 | 328 | 3.5 | 8.7 | 0.00 | 0.00 | 0.00 | 75 | 1013.4 |
| 20260831164116 | 83 | 25 | 1.7 | 8.7 | 0.00 | 0.00 | 0.00 | 77 | 1013.4 |
| 20260831163616 | 82 | 9 | 1.7 | 6.1 | 0.00 | 0.00 | 0.00 | 76 | 1013.5 |
| 20260831163116 | 82 | 309 | 1.7 | 6.1 | 0.00 | 0.00 | 0.00 | 77 | 1013.6 |
| 20260831162615 | 82 | 262 | 2.6 | 6.1 | 0.00 | 0.00 | 0.00 | 75 | 1013.6 |
| 20260831162116 | 82 | 309 | 1.7 | 6.1 | 0.00 | 0.00 | 0.00 | 76 | 1013.6 |
| 20260831161615 | 82 | 309 | 1.7 | 5.2 | 0.00 | 0.00 | 0.00 | 76 | 1013.5 |
| 20260831161117 | 82 | 9 | 1.7 | 5.2 | 0.00 | 0.00 | 0.00 | 76 | 1013.4 |
| 20260831160611 | 82 | 229 | 1.7 | 8.7 | 0.00 | 0.00 | 0.00 | 75 | 1012.9 |
| 20260831160109 | 83 | 291 | 1.7 | 8.7 | 0.00 | 0.00 | 0.00 | 74 | 1012.8 |
| 20260831155609 | 83 | 257 | 1.7 | 7.8 | 0.00 | 0.00 | 0.00 | 75 | 1012.7 |
| 20260831154609 | 83 | 272 | 2.6 | 7.8 | 0.00 | 0.00 | 0.00 | 77 | 1012.7 |
| 20260831154109 | 82 | 280 | 1.7 | 5.2 | 0.00 | 0.00 | 0.00 | 78 | 1012.6 |
| 20260831153609 | 82 | 265 | 1.7 | 5.2 | 0.00 | 0.00 | 0.00 | 79 | 1012.5 |
| 20260831153108 | 81 | 265 | 0.9 | 4.3 | 0.00 | 0.00 | 0.00 | 82 | 1012.6 |
| 20260831152609 | 80 | 281 | 1.7 | 4.3 | 0.00 | 0.00 | 0.00 | 84 | 1012.7 |
| 20260831152108 | 79 | 312 | 0.9 | 3.5 | 0.00 | 0.00 | 0.00 | 85 | 1012.7 |
| 20260831151108 | 77 | 9 | 2.6 | 4.3 | 0.00 | 0.00 | 0.00 | 86 | 1012.5 |
| 20260831150608 | 77 | 23 | 2.6 | 4.3 | 0.00 | 0.00 | 0.00 | 87 | 1012.5 |
| 20260831150108 | 76 | 341 | 1.7 | 4.3 | 0.00 | 0.00 | 0.00 | 87 | 1012.6 |
| 20260831145107 | 76 | 251 | 1.7 | 3.5 | 0.00 | 0.00 | 0.00 | 88 | 1012.7 |
| 20260831144103 | 75 | 19 | 1.7 | 3.5 | 0.00 | 0.00 | 0.00 | 89 | 1012.4 |
| 20260831143602 | 74 | 9 | 1.7 | 2.6 | 0.00 | 0.00 | 0.00 | 88 | 1012.1 |
| 20260831143103 | 74 | 51 | 1.7 | 2.6 | 0.00 | 0.00 | 0.00 | 89 | 1011.9 |
| 20260831142102 | 74 | 286 | 2.6 | 7.8 | 0.00 | 0.00 | 0.00 | 89 | 1012.3 |
| 20260831141602 | 74 | 217 | 5.2 | 7.8 | 0.00 | 0.00 | 0.00 | 89 | 1012.6 |
| 20260831141103 | 74 | 284 | 1.7 | 7.8 | 0.00 | 0.00 | 0.00 | 90 | 1011.9 |
| 20260831135602 | 73 | 165 | 4.3 | 15.6 | 0.00 | 0.00 | 0.00 | 90 | 1010.8 |
| 20260831135102 | 73 | 347 | 7.8 | 17.4 | 0.00 | 0.00 | 0.00 | 90 | 1009.8 |
| 20260831134602 | 73 | 25 | 7.8 | 17.4 | 0.00 | 0.00 | 0.00 | 90 | 1010.0 |
| 20260831134100 | 73 | 342 | 6.1 | 12.2 | 0.00 | 0.00 | 0.00 | 90 | 1011.9 |
| 20260831133101 | 73 | 282 | 3.5 | 9.6 | 0.00 | 0.00 | 0.00 | 90 | 1012.6 |
| 20260831132559 | 73 | 316 | 3.5 | 8.7 | 0.00 | 0.00 | 0.00 | 90 | 1012.2 |
| 20260831132100 | 74 | 311 | 2.6 | 6.1 | 0.00 | 0.00 | 0.00 | 90 | 1012.5 |
| 20260831131600 | 74 | 259 | 4.3 | 6.1 | 0.00 | 0.00 | 0.00 | 90 | 1013.4 |
| 20260831131100 | 74 | 291 | 0.0 | 1.7 | 0.00 | 0.00 | 0.00 | 90 | 1012.7 |
| 20260831130558 | 73 | 221 | 0.0 | 1.7 | 0.00 | 0.00 | 0.00 | 90 | 1012.5 |
| 20260831130059 | 73 | 51 | 0.9 | 2.6 | 0.00 | 0.00 | 0.00 | 90 | 1012.5 |
| 20260831125558 | 73 | 325 | 0.9 | 2.6 | 0.00 | 0.00 | 0.00 | 90 | 1012.7 |
| 20260831125058 | 73 | 115 | 0.9 | 2.6 | 0.00 | 0.00 | 0.00 | 90 | 1012.5 |
| 20260831122547 | 72 | 9 | 0.0 | 1.7 | 0.00 | 0.00 | 0.00 | 90 | 1011.8 |
| 20260831122046 | 72 | 265 | 0.9 | 1.7 | 0.00 | 0.00 | 0.00 | 90 | 1011.7 |
| 20260831121546 | 72 | 265 | 0.0 | 1.7 | 0.00 | 0.00 | 0.00 | 90 | 1011.7 |
| 20260831121047 | 72 | 250 | 0.9 | 1.7 | 0.00 | 0.00 | 0.00 | 90 | 1011.6 |
| 20260831120547 | 72 | 221 | 0.0 | 1.7 | 0.00 | 0.00 | 0.00 | 91 | 1011.3 |
| 20260831120046 | 72 | 34 | 0.0 | 0.9 | 0.00 | 0.00 | 0.00 | 91 | 1011.3 |
| 20260831115546 | 72 | 9 | 0.0 | 0.9 | 0.00 | 0.00 | 0.00 | 90 | 1011.1 |
| 20260831115046 | 72 | 9 | 0.0 | 0.9 | 0.00 | 0.00 | 0.00 | 90 | 1011.1 |
| 20260831114045 | 73 | 325 | 0.0 | 0.9 | 0.00 | 0.00 | 0.00 | 90 | 1010.9 |
| 20260831113044 | 72 | 51 | 1.7 | 1.7 | 0.00 | 0.00 | 0.00 | 90 | 1010.7 |
| 20260831112545 | 72 | 51 | 0.0 | 1.7 | 0.00 | 0.00 | 0.00 | 90 | 1010.6 |
| 20260831112045 | 73 | 26 | 0.0 | 1.7 | 0.00 | 0.00 | 0.00 | 90 | 1010.7 |
| 20260831111544 | 73 | 298 | 0.0 | 1.7 | 0.00 | 0.00 | 0.00 | 90 | 1010.5 |
| 20260831111044 | 73 | 137 | 0.9 | 2.6 | 0.00 | 0.00 | 0.00 | 90 | 1010.4 |
| 20260831110543 | 73 | 126 | 0.9 | 3.5 | 0.00 | 0.00 | 0.00 | 90 | 1010.3 |
| 20260831105545 | 72 | 76 | 0.9 | 1.7 | 0.00 | 0.00 | 0.00 | 90 | 1010.4 |
| 20260831104543 | 72 | 153 | 0.0 | 0.9 | 0.00 | 0.00 | 0.00 | 90 | 1010.4 |
| 20260831103543 | 72 | 221 | 0.0 | 1.7 | 0.00 | 0.00 | 0.00 | 90 | 1010.3 |
| 20260831103043 | 72 | 165 | 0.9 | 1.7 | 0.00 | 0.00 | 0.00 | 90 | 1010.4 |
| 20260831102542 | 72 | 298 | 0.0 | 0.9 | 0.00 | 0.00 | 0.00 | 90 | 1010.2 |
| 20260831102043 | 72 | 265 | 0.0 | 1.7 | 0.00 | 0.00 | 0.00 | 90 | 1010.2 |
| 20260831101041 | 72 | 178 | 0.0 | 2.6 | 0.00 | 0.00 | 0.00 | 90 | 1010.3 |
| 20260831100036 | 72 | 103 | 0.0 | 1.7 | 0.00 | 0.00 | 0.00 | 90 | 1009.9 |
| 20260831095536 | 72 | 93 | 0.0 | 1.7 | 0.00 | 0.00 | 0.00 | 90 | 1010.0 |
| 20260831095035 | 72 | 41 | 0.0 | 1.7 | 0.00 | 0.00 | 0.00 | 90 | 1010.0 |
| 20260831094535 | 72 | 221 | 0.0 | 1.7 | 0.00 | 0.00 | 0.00 | 90 | 1010.0 |
| 20260831094035 | 72 | 51 | 0.0 | 1.7 | 0.00 | 0.00 | 0.00 | 90 | 1010.0 |
| 20260831093535 | 72 | 9 | 0.9 | 3.5 | 0.00 | 0.00 | 0.00 | 90 | 1009.9 |
| 20260831093030 | 72 | 9 | 0.9 | 3.5 | 0.00 | 0.00 | 0.00 | 90 | 1009.8 |
| 20260831092529 | 72 | 148 | 1.7 | 3.5 | 0.00 | 0.00 | 0.00 | 90 | 1009.9 |
| 20260831092031 | 72 | 309 | 0.0 | 0.9 | 0.00 | 0.00 | 0.00 | 90 | 1009.8 |
| 20260831091514 | 72 | 334 | 0.0 | 1.7 | 0.00 | 0.00 | 0.00 | 90 | 1009.7 |
| 20260831091014 | 72 | 9 | 0.0 | 1.7 | 0.00 | 0.00 | 0.00 | 90 | 1009.7 |
| 20260831090513 | 72 | 108 | 0.9 | 2.6 | 0.00 | 0.00 | 0.00 | 90 | 1009.7 |
| 20260831085513 | 72 | 9 | 0.0 | 1.7 | 0.00 | 0.00 | 0.00 | 90 | 1009.8 |
| 20260831085013 | 72 | 51 | 0.0 | 1.7 | 0.00 | 0.00 | 0.00 | 90 | 1009.8 |
| 20260831084513 | 72 | 325 | 0.0 | 0.9 | 0.00 | 0.00 | 0.00 | 90 | 1009.8 |
| 20260831084013 | 72 | 309 | 0.0 | 2.6 | 0.00 | 0.00 | 0.00 | 90 | 1009.6 |
| 20260831083512 | 73 | 137 | 0.9 | 2.6 | 0.00 | 0.00 | 0.00 | 90 | 1009.5 |
| 20260831083013 | 73 | 221 | 0.9 | 2.6 | 0.00 | 0.00 | 0.00 | 90 | 1009.5 |
| 20260831082512 | 73 | 282 | 0.9 | 2.6 | 0.00 | 0.00 | 0.00 | 90 | 1009.2 |
| 20260831082013 | 73 | 16 | 1.7 | 1.7 | 0.00 | 0.00 | 0.00 | 90 | 1009.3 |
| 20260831081512 | 73 | 9 | 0.0 | 1.7 | 0.00 | 0.00 | 0.00 | 89 | 1009.3 |
| 20260831081012 | 73 | 137 | 0.0 | 1.7 | 0.00 | 0.00 | 0.00 | 90 | 1009.1 |
| 20260831080512 | 73 | 119 | 0.9 | 1.7 | 0.00 | 0.00 | 0.00 | 90 | 1009.3 |
| 20260831080012 | 73 | 265 | 0.9 | 0.9 | 0.00 | 0.00 | 0.00 | 89 | 1009.4 |
| 20260831075511 | 73 | 265 | 0.0 | 0.9 | 0.00 | 0.00 | 0.00 | 89 | 1009.3 |
| 20260831075012 | 73 | 34 | 0.0 | 0.9 | 0.00 | 0.00 | 0.00 | 89 | 1009.2 |
| 20260831074501 | 73 | 93 | 0.0 | 1.7 | 0.00 | 0.00 | 0.00 | 89 | 1009.2 |
| 20260831073956 | 73 | 34 | 0.9 | 1.7 | 0.00 | 0.00 | 0.00 | 90 | 1009.2 |
| 20260831073457 | 73 | 9 | 0.0 | 1.7 | 0.00 | 0.00 | 0.00 | 89 | 1009.3 |
| 20260831072951 | 74 | 108 | 0.9 | 2.6 | 0.00 | 0.00 | 0.00 | 89 | 1009.3 |
| 20260831072451 | 74 | 115 | 0.9 | 2.6 | 0.00 | 0.00 | 0.00 | 89 | 1009.3 |
| 20260831071950 | 74 | 126 | 0.9 | 2.6 | 0.00 | 0.00 | 0.00 | 89 | 1009.2 |
| 20260831071450 | 74 | 137 | 0.0 | 2.6 | 0.00 | 0.00 | 0.00 | 89 | 1009.2 |
| 20260831070945 | 74 | 117 | 1.7 | 2.6 | 0.00 | 0.00 | 0.00 | 89 | 1009.3 |
| 20260831070445 | 74 | 111 | 0.9 | 2.6 | 0.00 | 0.00 | 0.00 | 89 | 1009.4 |
| 20260831065445 | 74 | 196 | 0.9 | 1.7 | 0.00 | 0.00 | 0.00 | 89 | 1009.5 |
| 20260831064944 | 74 | 137 | 0.9 | 1.7 | 0.00 | 0.00 | 0.00 | 89 | 1009.5 |
| 20260831063944 | 74 | 338 | 0.0 | 1.7 | 0.00 | 0.00 | 0.00 | 88 | 1009.5 |
| 20260831063444 | 74 | 334 | 0.0 | 1.7 | 0.00 | 0.00 | 0.00 | 88 | 1009.5 |
| 20260831062443 | 75 | 284 | 0.9 | 1.7 | 0.00 | 0.00 | 0.00 | 88 | 1009.7 |
| 20260831060944 | 75 | 162 | 0.0 | 1.7 | 0.00 | 0.00 | 0.00 | 88 | 1009.5 |
| 20260831055943 | 75 | 178 | 0.0 | 1.7 | 0.00 | 0.00 | 0.00 | 87 | 1009.5 |
| 20260831055443 | 75 | 137 | 0.0 | 1.7 | 0.00 | 0.00 | 0.00 | 87 | 1009.5 |
| 20260831054943 | 75 | 34 | 0.0 | 1.7 | 0.00 | 0.00 | 0.00 | 87 | 1009.4 |
| 20260831054442 | 76 | 298 | 0.9 | 1.7 | 0.00 | 0.00 | 0.00 | 87 | 1009.2 |
| 20260831053943 | 76 | 119 | 0.9 | 1.7 | 0.00 | 0.00 | 0.00 | 87 | 1009.2 |
| 20260831052938 | 76 | 9 | 0.0 | 0.9 | 0.00 | 0.00 | 0.00 | 86 | 1009.3 |
| 20260831052435 | 76 | 153 | 0.0 | 1.7 | 0.00 | 0.00 | 0.00 | 86 | 1009.2 |
| 20260831051934 | 76 | 51 | 0.0 | 1.7 | 0.00 | 0.00 | 0.00 | 86 | 1009.1 |
| 20260831051434 | 76 | 215 | 0.9 | 2.6 | 0.00 | 0.00 | 0.00 | 86 | 1009.2 |
| 20260831050934 | 76 | 205 | 0.0 | 2.6 | 0.00 | 0.00 | 0.00 | 86 | 1009.1 |
| 20260831050433 | 76 | 291 | 0.9 | 1.7 | 0.00 | 0.00 | 0.00 | 86 | 1009.0 |
| 20260831045934 | 77 | 178 | 0.9 | 1.7 | 0.00 | 0.00 | 0.00 | 85 | 1009.0 |
| 20260831045434 | 77 | 34 | 0.9 | 3.5 | 0.00 | 0.00 | 0.00 | 85 | 1009.1 |
| 20260831044935 | 77 | 279 | 0.9 | 3.5 | 0.00 | 0.00 | 0.00 | 85 | 1009.2 |
| 20260831044433 | 77 | 293 | 0.9 | 3.5 | 0.00 | 0.00 | 0.00 | 84 | 1009.3 |
| 20260831043934 | 77 | 282 | 0.9 | 4.3 | 0.00 | 0.00 | 0.00 | 84 | 1009.2 |
| 20260831043434 | 78 | 338 | 1.7 | 4.3 | 0.00 | 0.00 | 0.00 | 83 | 1009.0 |
| 20260831042933 | 78 | 330 | 0.0 | 0.9 | 0.00 | 0.00 | 0.00 | 82 | 1009.0 |
| 20260831042432 | 78 | 298 | 0.0 | 0.9 | 0.00 | 0.00 | 0.00 | 82 | 1009.0 |
| 20260831041933 | 79 | 119 | 0.0 | 2.6 | 0.00 | 0.00 | 0.00 | 82 | 1009.0 |
| 20260831041433 | 79 | 196 | 0.9 | 2.6 | 0.00 | 0.00 | 0.00 | 81 | 1009.0 |
| 20260831040933 | 79 | 165 | 0.0 | 1.7 | 0.00 | 0.00 | 0.00 | 80 | 1009.1 |
| 20260831040432 | 80 | 212 | 0.0 | 0.9 | 0.00 | 0.00 | 0.00 | 80 | 1009.1 |
| 20260831035934 | 80 | 309 | 0.0 | 1.7 | 0.00 | 0.00 | 0.00 | 80 | 1009.1 |
| 20260831034932 | 80 | 137 | 0.0 | 1.7 | 0.00 | 0.00 | 0.00 | 80 | 1009.1 |
| 20260831034432 | 80 | 126 | 0.9 | 2.6 | 0.00 | 0.00 | 0.00 | 80 | 1009.3 |
| 20260831033932 | 80 | 119 | 1.7 | 2.6 | 0.00 | 0.00 | 0.00 | 80 | 1009.4 |
| 20260831033432 | 80 | 103 | 1.7 | 2.6 | 0.00 | 0.00 | 0.00 | 80 | 1009.4 |
| 20260831032932 | 79 | 137 | 1.7 | 3.5 | 0.00 | 0.00 | 0.00 | 81 | 1009.4 |
| 20260831032430 | 79 | 115 | 1.7 | 3.5 | 0.00 | 0.00 | 0.00 | 81 | 1009.3 |
| 20260831031932 | 79 | 111 | 2.6 | 3.5 | 0.00 | 0.00 | 0.00 | 81 | 1009.2 |
| 20260831030930 | 79 | 103 | 1.7 | 2.6 | 0.00 | 0.00 | 0.00 | 81 | 1009.3 |
| 20260831030431 | 79 | 119 | 1.7 | 3.5 | 0.00 | 0.00 | 0.00 | 81 | 1009.4 |
| 20260831025930 | 79 | 119 | 1.7 | 3.5 | 0.00 | 0.00 | 0.00 | 80 | 1009.4 |
| 20260831024930 | 80 | 137 | 0.9 | 1.7 | 0.00 | 0.00 | 0.00 | 78 | 1009.5 |
| 20260831024429 | 81 | 234 | 0.9 | 1.7 | 0.00 | 0.00 | 0.00 | 78 | 1009.4 |
| 20260831023930 | 81 | 221 | 0.9 | 1.7 | 0.00 | 0.00 | 0.00 | 78 | 1009.5 |
| 20260831023430 | 81 | 137 | 0.9 | 1.7 | 0.00 | 0.00 | 0.00 | 78 | 1009.4 |
| 20260831022929 | 81 | 119 | 1.7 | 1.7 | 0.00 | 0.00 | 0.00 | 78 | 1009.4 |
| 20260831022431 | 81 | 137 | 0.0 | 1.7 | 0.00 | 0.00 | 0.00 | 78 | 1009.4 |
| 20260831021929 | 81 | 291 | 0.9 | 1.7 | 0.00 | 0.00 | 0.00 | 78 | 1009.3 |
| 20260831021429 | 81 | 205 | 1.7 | 1.7 | 0.00 | 0.00 | 0.00 | 78 | 1009.2 |
| 20260831020929 | 81 | 111 | 0.9 | 2.6 | 0.00 | 0.00 | 0.00 | 78 | 1009.2 |
| 20260831015929 | 81 | 117 | 1.7 | 3.5 | 0.00 | 0.00 | 0.00 | 77 | 1009.1 |
| 20260831015428 | 82 | 121 | 1.7 | 3.5 | 0.00 | 0.00 | 0.00 | 77 | 1009.0 |
| 20260831014928 | 82 | 178 | 0.9 | 1.7 | 0.00 | 0.00 | 0.00 | 76 | 1009.1 |
| 20260831013927 | 83 | 111 | 0.9 | 2.6 | 0.00 | 0.00 | 0.00 | 75 | 1008.9 |
| 20260831013427 | 83 | 153 | 0.9 | 3.5 | 0.00 | 0.00 | 0.00 | 74 | 1008.9 |
| 20260831012928 | 83 | 178 | 1.7 | 3.5 | 0.00 | 0.00 | 0.00 | 73 | 1008.9 |
| 20260831012427 | 84 | 119 | 1.7 | 3.5 | 0.00 | 0.00 | 0.00 | 72 | 1008.8 |
| 20260831011927 | 85 | 110 | 1.7 | 2.6 | 0.00 | 0.00 | 0.00 | 69 | 1008.8 |
| 20260831011427 | 85 | 119 | 0.9 | 1.7 | 0.00 | 0.00 | 0.00 | 67 | 1008.8 |
| 20260831010427 | 86 | 119 | 0.0 | 0.9 | 0.00 | 0.00 | 0.00 | 66 | 1008.7 |
| 20260831005428 | 87 | 119 | 0.0 | 1.7 | 0.00 | 0.00 | 0.00 | 64 | 1008.7 |
| 20260831004927 | 87 | 238 | 0.0 | 1.7 | 0.00 | 0.00 | 0.00 | 63 | 1008.6 |
| 20260831004426 | 88 | 196 | 0.0 | 1.7 | 0.00 | 0.00 | 0.00 | 61 | 1008.7 |
| 20260831003425 | 88 | 226 | 0.9 | 2.6 | 0.00 | 0.00 | 0.00 | 61 | 1008.7 |
| 20260831002925 | 89 | 205 | 1.7 | 3.5 | 0.00 | 0.00 | 0.00 | 61 | 1008.7 |
| 20260831002425 | 89 | 234 | 1.7 | 3.5 | 0.00 | 0.00 | 0.00 | 60 | 1008.7 |
| 20260831001924 | 89 | 208 | 1.7 | 4.3 | 0.00 | 0.00 | 0.00 | 60 | 1008.8 |
| 20260831001425 | 89 | 205 | 1.7 | 5.2 | 0.00 | 0.00 | 0.00 | 59 | 1008.7 |
| 20260831000924 | 90 | 219 | 2.6 | 5.2 | 0.00 | 0.00 | 0.00 | 58 | 1008.7 |
| 20260831000425 | 90 | 215 | 2.6 | 5.2 | 0.00 | 0.00 | 0.00 | 58 | 1008.7 |
| 20260830235923 | 91 | 178 | 1.7 | 5.2 | 0.00 | 0.00 | 0.00 | 57 | 1008.7 |
| 20260830235423 | 91 | 230 | 2.6 | 6.1 | 0.00 | 0.00 | 0.00 | 57 | 1008.7 |
| 20260830234923 | 91 | 247 | 1.7 | 6.1 | 0.00 | 0.00 | 0.00 | 58 | 1008.6 |
| 20260830234424 | 92 | 240 | 2.6 | 5.2 | 0.00 | 0.00 | 0.00 | 56 | 1008.7 |
| 20260830233923 | 92 | 243 | 1.7 | 5.2 | 0.00 | 0.00 | 0.00 | 59 | 1008.7 |
| 20260830233423 | 92 | 212 | 2.6 | 5.2 | 0.00 | 0.00 | 0.00 | 58 | 1008.6 |
| 20260830232923 | 92 | 265 | 2.6 | 5.2 | 0.00 | 0.00 | 0.00 | 58 | 1008.7 |
| 20260830232423 | 92 | 238 | 1.7 | 5.2 | 0.00 | 0.00 | 0.00 | 60 | 1008.6 |
| 20260830231925 | 92 | 234 | 2.6 | 6.1 | 0.00 | 0.00 | 0.00 | 59 | 1008.7 |
| 20260830231423 | 92 | 261 | 3.5 | 6.1 | 0.00 | 0.00 | 0.00 | 57 | 1008.6 |
| 20260830230922 | 92 | 208 | 2.6 | 7.0 | 0.00 | 0.00 | 0.00 | 56 | 1008.5 |
| 20260830225922 | 92 | 221 | 2.6 | 8.7 | 0.00 | 0.00 | 0.00 | 56 | 1008.4 |
| 20260830225422 | 91 | 259 | 4.3 | 8.7 | 0.00 | 0.00 | 0.00 | 55 | 1008.4 |
| 20260830224921 | 91 | 243 | 3.5 | 7.0 | 0.00 | 0.00 | 0.00 | 56 | 1008.5 |
| 20260830224421 | 91 | 178 | 4.3 | 7.0 | 0.00 | 0.00 | 0.00 | 55 | 1008.5 |
| 20260830223922 | 91 | 198 | 3.5 | 10.4 | 0.00 | 0.00 | 0.00 | 54 | 1008.6 |
| 20260830222421 | 90 | 171 | 5.2 | 10.4 | 0.00 | 0.00 | 0.00 | 54 | 1008.6 |
| 20260830221923 | 91 | 227 | 3.5 | 9.6 | 0.00 | 0.00 | 0.00 | 54 | 1008.5 |
| 20260830221421 | 91 | 221 | 6.1 | 11.3 | 0.00 | 0.00 | 0.00 | 54 | 1008.4 |
| 20260830220421 | 91 | 219 | 6.1 | 13.0 | 0.00 | 0.00 | 0.00 | 54 | 1008.4 |
| 20260830215920 | 91 | 229 | 6.1 | 13.0 | 0.00 | 0.00 | 0.00 | 53 | 1008.4 |
| 20260830215420 | 91 | 221 | 3.5 | 10.4 | 0.00 | 0.00 | 0.00 | 54 | 1008.4 |
| 20260830212920 | 91 | 216 | 5.2 | 7.8 | 0.00 | 0.00 | 0.00 | 53 | 1008.2 |
| 20260830212419 | 91 | 190 | 3.5 | 9.6 | 0.00 | 0.00 | 0.00 | 55 | 1008.3 |
| 20260830211920 | 91 | 225 | 5.2 | 10.4 | 0.00 | 0.00 | 0.00 | 53 | 1008.3 |
| 20260830211418 | 91 | 166 | 4.3 | 13.0 | 0.00 | 0.00 | 0.00 | 54 | 1008.2 |
| 20260830210919 | 90 | 217 | 5.2 | 13.9 | 0.00 | 0.00 | 0.00 | 54 | 1008.4 |
| 20260830205918 | 89 | 229 | 5.2 | 12.2 | 0.00 | 0.00 | 0.00 | 54 | 1008.7 |
| 20260830205418 | 89 | 200 | 6.1 | 12.2 | 0.00 | 0.00 | 0.00 | 53 | 1008.9 |
| 20260830204918 | 89 | 212 | 7.0 | 11.3 | 0.00 | 0.00 | 0.00 | 53 | 1008.9 |
| 20260830204418 | 88 | 232 | 7.8 | 11.3 | 0.00 | 0.00 | 0.00 | 52 | 1008.9 |
| 20260830203918 | 88 | 225 | 4.3 | 10.4 | 0.00 | 0.00 | 0.00 | 54 | 1008.8 |
| 20260830202917 | 89 | 189 | 6.1 | 14.8 | 0.00 | 0.00 | 0.00 | 51 | 1008.9 |